Location: Rancho Del Sol Observatory
(38.7214°N, 120.6350°W)
Time: 07:01:32
(UTC-08:00)

Courier 1B - All Passes

Search period start: 27 January 2020 00:00
Search period end: 06 February 2020 00:00
Orbit: 962 x 1209 km, 28.3° (Epoch: 27 January)

Date Brightness Start Highest point End Pass type
(mag) Time Alt. Az. Time Alt. Az. Time Alt. Az.
27 Jan - 00:41:07 10° SSW 00:45:24 17° SSE 00:49:50 10° ESE night (unlit)
27 Jan - 02:32:28 10° SW 02:38:37 33° S 02:45:07 10° ESE visible
27 Jan - 04:25:36 10° WSW 04:32:11 37° S 04:39:06 10° ESE visible
27 Jan - 06:19:45 10° WSW 06:25:45 26° SSW 06:31:54 10° SE visible
27 Jan - 08:17:44 10° SW 08:19:02 10° SSW 08:20:22 10° SSW daylight
27 Jan - 23:49:01 10° S 23:51:53 13° SSE 23:54:49 10° SE night (unlit)
28 Jan - 01:39:12 10° SW 01:44:59 29° SSE 01:51:02 10° ESE night (unlit)
28 Jan - 03:31:59 10° WSW 03:38:26 37° S 03:45:15 10° ESE visible
28 Jan - 05:25:48 10° WSW 05:32:01 29° SSW 05:38:28 10° SE visible
28 Jan - 07:21:38 10° WSW 07:25:23 14° SSW 07:29:11 10° S daylight
29 Jan - 00:46:06 10° SSW 00:51:23 24° SSE 00:56:53 10° ESE night (unlit)
29 Jan - 02:38:28 10° WSW 02:44:44 36° S 02:51:22 10° ESE visible
29 Jan - 04:32:00 10° WSW 04:38:17 32° S 04:44:53 10° SE visible
29 Jan - 06:26:56 10° WSW 06:31:43 18° SSW 06:36:37 10° SSE visible
29 Jan - 23:53:13 10° SSW 23:57:49 20° SSE 00:02:35 10° ESE night (unlit)
30 Jan - 01:45:02 10° SW 01:51:04 34° S 01:57:25 10° ESE night (unlit)
30 Jan - 03:38:18 10° WSW 03:44:34 34° S 03:51:12 10° SE visible
30 Jan - 05:32:40 10° WSW 05:38:02 22° SSW 05:43:35 10° SSE visible
30 Jan - 23:00:41 10° S 23:04:19 15° SSE 23:08:02 10° ESE night (unlit)
31 Jan - 00:51:43 10° SW 00:57:26 30° SSE 01:03:26 10° ESE night (unlit)
31 Jan - 02:44:41 10° WSW 02:50:53 35° S 02:57:25 10° ESE visible
31 Jan - 04:38:40 10° WSW 04:44:21 25° SSW 04:50:17 10° SE visible
31 Jan - 06:36:05 10° SW 06:37:38 11° SSW 06:39:12 10° SSW visible
31 Jan - 22:09:00 10° S 22:10:51 11° SSE 22:12:43 10° SE night (unlit)
31 Jan - 23:58:30 10° SW 00:03:51 26° SSE 00:09:25 10° ESE night (unlit)
01 Feb - 01:51:09 10° WSW 01:57:12 35° S 02:03:36 10° ESE night (unlit)
01 Feb - 03:44:49 10° WSW 03:50:41 29° SSW 03:56:50 10° SE visible
01 Feb - 05:40:24 10° SW 05:44:01 14° SSW 05:47:41 10° S visible
01 Feb - 23:05:27 10° SSW 23:10:19 22° SSE 23:15:19 10° ESE night (unlit)
02 Feb - 00:57:41 10° WSW 01:03:34 34° S 01:09:45 10° ESE night (unlit)
02 Feb - 02:51:06 10° WSW 02:57:00 31° S 03:03:15 10° SE visible
02 Feb - 04:45:52 10° WSW 04:50:22 18° SSW 04:55:02 10° SSE visible
02 Feb - 22:12:37 10° SSW 22:16:48 18° SSE 22:21:04 10° ESE night (unlit)
03 Feb - 00:04:17 10° SW 00:09:58 32° S 00:15:53 10° ESE night (unlit)
03 Feb - 01:57:28 10° WSW 02:03:22 33° S 02:09:35 10° SE night (unlit)
03 Feb - 03:51:42 10° WSW 03:56:44 21° SSW 04:01:59 10° SSE visible
03 Feb - 21:20:11 10° S 21:23:20 14° SSE 21:26:30 10° SE night (unlit)
03 Feb - 23:10:58 10° SW 23:16:24 28° SSE 23:21:59 10° ESE night (unlit)
04 Feb - 01:03:53 10° WSW 01:09:44 34° S 01:15:52 10° ESE night (unlit)
04 Feb - 02:57:47 10° WSW 03:03:07 25° SSW 03:08:42 10° SE visible
04 Feb - 04:55:12 10° SW 04:56:20 10° SSW 04:57:29 10° SSW visible
04 Feb - 20:29:09 10° SSE 20:29:51 10° SSE 20:30:34 10° SE visible
04 Feb - 22:17:46 10° SW 22:22:52 25° SSE 22:28:02 10° ESE night (unlit)
05 Feb - 00:10:22 10° WSW 00:16:08 34° S 00:22:07 10° ESE night (unlit)
05 Feb - 02:03:59 10° WSW 02:09:30 28° SSW 02:15:16 10° SE night (unlit)
05 Feb - 03:59:28 10° SW 04:02:45 14° SSW 04:06:06 10° S visible
05 Feb - 21:24:42 10° SSW 21:29:21 21° SSE 21:34:01 10° ESE visible
05 Feb - 23:16:54 10° SW 23:22:33 32° S 23:28:21 10° ESE night (unlit)
